TimePDT,TemperatureF,Dew PointF,Humidity,Sea Level PressureIn,VisibilityMPH,Wind Direction,Wind SpeedMPH,Gust SpeedMPH,PrecipitationIn,Events,Conditions,WindDirDegrees,DateUTC
12:53 AM,34.0,23.0,64,29.76,10.0,Calm,Calm,-,N/A,,Clear,0,2014-04-02 07:53:00
1:53 AM,32.0,25.0,75,29.77,10.0,Calm,Calm,-,N/A,,Clear,0,2014-04-02 08:53:00
2:53 AM,30.9,24.1,76,29.77,10.0,ENE,3.5,-,N/A,,Clear,60,2014-04-02 09:53:00
3:53 AM,30.9,25.0,79,29.78,10.0,NNE,4.6,-,N/A,,Mostly Cloudy,30,2014-04-02 10:53:00
5:53 AM,33.1,26.1,75,29.81,10.0,Calm,Calm,-,N/A,,Mostly Cloudy,0,2014-04-02 12:53:00
6:53 AM,32.0,26.1,79,29.83,10.0,Calm,Calm,-,N/A,,Partly Cloudy,0,2014-04-02 13:53:00
7:53 AM,36.0,28.0,73,29.86,10.0,Calm,Calm,-,N/A,,Mostly Cloudy,0,2014-04-02 14:53:00
8:53 AM,39.9,33.1,77,29.86,10.0,Calm,Calm,-,N/A,,Scattered Clouds,0,2014-04-02 15:53:00
9:53 AM,42.1,32.0,67,29.88,10.0,Calm,Calm,-,N/A,,Clear,0,2014-04-02 16:53:00
10:53 AM,46.9,33.1,59,29.88,10.0,Calm,Calm,-,N/A,,Clear,0,2014-04-02 17:53:00
11:53 AM,50.0,27.0,41,29.88,10.0,West,5.8,-,N/A,,Clear,280,2014-04-02 18:53:00
12:53 PM,54.0,26.1,34,29.87,10.0,SW,8.1,-,N/A,,Scattered Clouds,220,2014-04-02 19:53:00
1:53 PM,55.0,25.0,31,29.87,10.0,SW,6.9,-,N/A,,Scattered Clouds,230,2014-04-02 20:53:00
2:53 PM,57.2,21.2,25,29.85,10.0,WSW,9.2,-,N/A,,Scattered Clouds,240,2014-04-02 21:53:00
3:53 PM,57.0,17.1,21,29.86,10.0,Variable,3.5,-,N/A,,Scattered Clouds,0,2014-04-02 22:53:00
4:53 PM,55.9,16.0,21,29.87,10.0,West,15.0,23.0,N/A,,Partly Cloudy,280,2014-04-02 23:53:00
5:53 PM,55.9,18.0,23,29.88,10.0,West,12.7,24.2,N/A,,Partly Cloudy,260,2014-04-03 00:53:00
6:53 PM,55.0,21.0,27,29.89,10.0,West,8.1,-,N/A,,Partly Cloudy,260,2014-04-03 01:53:00
7:53 PM,50.0,23.0,35,29.91,10.0,Calm,Calm,-,N/A,,Clear,0,2014-04-03 02:53:00
8:53 PM,46.4,24.8,43,29.90,10.0,Calm,Calm,-,N/A,,Clear,0,2014-04-03 03:53:00
9:53 PM,48.0,24.1,39,29.93,10.0,Variable,3.5,-,N/A,,Clear,0,2014-04-03 04:53:00
10:53 PM,48.0,27.0,44,29.93,10.0,West,3.5,-,N/A,,Clear,260,2014-04-03 05:53:00
11:53 PM,46.0,28.0,50,29.94,10.0,NW,3.5,-,N/A,,Clear,320,2014-04-03 06:53:00